Location: Big Meadows
(38.5260°N, 78.4400°W)
Time: 04:17:27
(UTC-04:00)

Daily predictions for brighter satellites

Satellite Brightness Start Highest point End
(mag) Time Altitude Azimuth Time Altitude Azimuth Time Altitude Azimuth
Cosmos 2227 Rocket 4.5 03:25:43 20° NE 03:25:43 20° NE 03:27:35 10° NE
Cosmos 2297 Rocket 4.3 03:33:43 22° ENE 03:33:43 22° ENE 03:36:10 10° NE
Cosmos 2344 4.1 03:37:35 56° NNE 03:37:35 56° NNE 03:44:12 10° NNE
SL-16 R/B 4.4 04:10:05 18° NNW 04:10:05 18° NNW 04:11:31 10° NNW
Lacrosse 5 3.5 04:24:08 28° NNE 04:24:08 28° NNE 04:26:45 10° NNE
ATLAS 5 CENTAUR R/B 3.7 04:33:20 29° SSE 04:33:20 29° SSE 04:36:22 10° SSE
Okean O Rocket 3.2 04:25:45 10° NNE 04:28:30 33° NE 04:28:30 33° NE
CZ-4B R/B 4.0 04:32:45 10° NNE 04:38:01 48° E 04:40:08 32° SSE
Cosmos 1892 Rocket 4.4 04:43:23 48° NE 04:43:23 48° NE 04:47:02 10° NNE
USA 215 3.1 04:38:03 10° SE 04:44:35 74° SW 04:45:11 70° W
Meteor 1-19 Rocket 4.3 04:46:45 63° NNW 04:46:45 63° NNW 04:51:30 10° N
ADEOS Rocket 4.0 04:40:34 10° NNE 04:47:16 49° E 04:53:16 10° S
CZ-2D R/B 3.8 04:42:43 10° N 04:44:44 22° NNW 04:44:44 22° NNW
Cosmos 2100 Rocket 4.4 04:42:43 10° N 04:48:56 64° E 04:55:11 10° SSE
Meteor 2-4 Rocket 3.8 04:48:10 62° S 04:49:12 82° E 04:55:10 10° N
BREEZE-M DEB (TANK) 3.9 04:50:16 45° NE 04:50:16 45° NE 04:52:09 10° NE
CENTAUR R/B 3.8 04:45:15 10° NNW 04:52:53 53° NE 05:00:58 10° SE
Cosmos 2061 Rocket 4.4 04:48:32 10° N 04:54:49 64° E 05:01:08 10° SSE
IRS-1C Rocket 3.9 04:52:33 10° NNE 04:57:51 87° WNW 04:58:22 74° SSW
SL-16 R/B 2.2 04:52:09 10° NNW 04:57:52 78° ENE 05:03:30 10° SSE
NOSS 2-2 (D) 4.5 05:00:15 38° SE 05:00:54 41° ESE 05:05:08 10° NE
Meteor 2-9 Rocket 4.3 04:55:17 10° N 05:01:00 80° E 05:06:49 10° SSE
Meteor 1-23 Rocket 4.1 04:59:59 55° SSW 05:01:18 86° W 05:07:02 10° N
CZ-4B R/B 3.2 04:57:09 10° NNE 05:01:37 77° ESE 05:01:53 74° SE
Resurs 1-4 Rocket 3.8 04:58:24 10° NNW 05:00:21 19° NNW 05:00:21 19° NNW
NOSS 3-2 (C) 4.1 05:04:00 45° W 05:05:17 49° WSW 05:12:59 10° S
Cosmos 1898 Rocket 3.4 05:04:52 64° SSW 05:05:43 85° WNW 05:11:03 10° NNE
Cosmos 2227 Rocket 3.3 05:07:33 29° NW 05:07:33 29° NW 05:11:29 10° N
Okean 2 3.9 05:13:04 47° NNW 05:13:04 47° NNW 05:16:10 10° N
Cosmos 858 Rocket 4.4 05:11:52 52° SSW 05:13:11 82° WNW 05:18:30 10° NNE
Cosmos 2098 Rocket 4.1 05:09:08 10° N 05:13:16 50° E 05:18:30 10° SSE
Cosmos 1000 Rocket 4.4 05:08:42 13° S 05:14:29 88° W 05:20:51 10° N
Cosmos 1937 Rocket 3.5 05:12:42 35° S 05:14:57 83° ESE 05:20:15 10° NNE
Cosmos 2297 Rocket 2.9 05:15:33 35° NW 05:15:33 35° NW 05:20:24 10° N
NOSS 2-2 (C) 3.8 05:15:14 46° S 05:16:12 62° ESE 05:20:43 10° NE
DELTA 2 R/B (1) 3.5 05:15:21 55° W 05:16:37 86° N 05:22:13 10° E
NOSS 2-2 (E) 3.6 05:16:26 54° S 05:17:16 73° ESE 05:21:56 10° NE
Cosmos 2016 Rocket 4.2 05:13:58 10° N 05:20:19 75° E 05:26:33 10° SSE
CZ-2C R/B 3.8 05:22:06 54° WNW 05:22:06 54° WNW 05:26:17 10° NNW
Tiangong 1 2.4 05:22:33 33° NNE 05:22:33 33° NNE 05:24:57 10° ENE
Cosmos 2173 Rocket 3.8 05:19:17 10° N 05:25:21 73° W 05:31:28 10° S
EXPRESS MD2 4.0 05:24:17 36° NNW 05:25:25 54° NE 05:31:06 10° ESE
Cosmos 2058 Rocket 2.9 05:24:15 10° NNW 05:28:33 61° W 05:32:51 10° S
Cosmos 967 Rocket 4.5 05:24:50 24° SSW 05:28:59 89° WNW 05:35:27 10° NNE
Cosmos 1459 Rocket 3.9 05:23:43 10° NNW 05:30:01 65° W 05:36:13 10° S
OE (NEXTSAT) 4.5 05:30:33 60° SSW 05:30:33 60° SSW 05:33:56 10° SE
Cosmos 1346 Rocket 4.4 05:33:39 22° NW 05:33:39 22° NW 05:35:32 10° NNW
FALCON 9 R/B 3.8 05:28:31 24° SW 05:32:46 54° SSE 05:54:41 10° E
Meteor 2-15 4.3 05:29:17 10° S 05:35:19 82° W 05:41:24 10° N
Cosmos 2123 Rocket 4.1 05:32:26 10° S 05:38:35 79° E 05:44:47 10° N
Okean-O 2.6 05:34:26 10° NNE 05:38:53 83° ESE 05:43:19 10° S
CZ-4B DEB 4.4 05:37:00 10° N 05:42:16 48° WNW 05:45:46 20° SW
Cosmos 1603 4.0 05:39:52 10° NNW 05:45:37 72° ENE 05:51:16 10° SSE
Cosmos 2263 Rocket 4.2 05:43:39 10° SSE 05:48:18 28° ESE 05:52:57 10° NE
Cosmos 1626 Rocket 3.4 05:48:07 10° SSW 05:52:28 69° W 05:56:48 10° N
ADEOS II 2.0 05:49:37 10° N 05:54:50 66° WNW 06:00:03 10° SSW
Meteor 2-15 Rocket 4.4 05:50:07 10° SSW 05:56:08 65° W 06:02:10 10° N
Genesis I 3.3 05:54:19 26° SW 05:56:22 57° WNW 06:00:19 10° NNE
MOS 1 Rocket 3.5 05:52:41 10° NNE 05:57:37 84° ESE 06:02:49 10° S
BREEZE-M DEB (TANK) 3.6 05:49:03 10° WNW 06:01:48 77° NNE 06:05:24 10° ESE
Cosmos 192 4.3 05:57:34 10° NNW 06:02:25 60° WSW 06:07:15 10° S
Delta 2 Rocket 4.5 06:03:50 20° SW 06:05:10 24° SSW 06:08:09 10° SSE
Okean O Rocket 3.3 06:03:21 10° NNW 06:05:57 16° WNW 06:05:58 16° WNW
Lacrosse 5 4.0 06:03:24 10° NW 06:05:58 14° NNW 06:08:32 10° N
Meteor 1-31 Rocket 2.7 06:04:19 10° N 06:08:14 79° WNW 06:12:10 10° SSW
Cosmos 1515 3.9 06:05:01 10° SSW 06:08:41 45° W 06:12:22 10° N
COBE Rocket 3.7 06:04:37 10° N 06:09:22 74° WNW 06:14:00 10° SSW
USA 129 1.0 06:11:43 10° S 06:13:33 62° WSW 06:15:13 10° NNW
ATLAS 5 CENTAUR R/B 4.2 06:15:05 12° WSW 06:15:05 12° WSW 06:16:16 10° SW
Cosmos 972 Rocket 4.5 06:11:19 10° SW 06:16:42 53° WNW 06:22:47 10° N
Cosmos 1602 Rocket 4.1 06:12:58 10° SW 06:17:03 36° WNW 06:21:09 10° N
Cosmos 1340 2.6 06:13:54 10° SSW 06:17:41 75° W 06:21:30 10° N
CZ-4B R/B 4.4 06:14:10 10° NNW 06:18:14 22° WNW 06:22:01 11° WSW
Ariane Rocket 3.5 06:18:32 10° NNE 06:23:37 64° ESE 06:28:40 10° S
Thor Agena Rocket 4.5 06:19:57 10° SSW 06:24:22 27° W 06:28:49 10° NW
OAO 2 Rocket 3.8 06:20:39 13° WSW 06:25:21 59° S 06:30:35 10° E
CZ-4B R/B 3.9 06:21:44 10° N 06:25:29 49° WNW 06:29:04 10° SSW
SKYMED 2 3.9 06:21:53 10° SSE 06:26:10 72° ENE 06:30:31 10° N
Cosmos 1269 Rocket 4.2 06:21:24 10° NNW 06:26:42 81° ENE 06:31:59 10° SSE
Cosmos 2233 Rocket 4.0 06:20:33 10° N 06:26:49 80° W 06:33:00 10° S
Cosmos 2228 4.4 06:25:32 10° NW 06:28:29 18° W 06:31:25 10° SW
ADEOS Rocket 4.1 06:26:35 10° N 06:32:20 28° WNW 06:37:39 10° WSW
Cosmos 1174 4.2 06:29:47 10° NW 06:32:31 28° WSW 06:35:34 10° S
Cosmos 2084 Rocket 3.4 06:29:18 10° NNW 06:33:13 83° ENE 06:37:19 10° SE
Radarsat Rocket 4.1 06:28:51 10° NNE 06:35:27 82° WNW 06:41:25 10° SSW
Cosmos 1842 3.8 06:33:49 10° S 06:37:38 63° E 06:41:29 10° NNE
Cosmos 1953 4.3 06:36:17 10° NNE 06:39:59 35° ENE 06:43:40 10° SE
SL-16 R/B 3.8 06:38:53 10° WNW 06:41:10 13° W 06:43:27 10° WSW
Cosmos 372 Rocket 4.0 06:37:10 10° SSW 06:42:16 87° WNW 06:47:25 10° NNE
CENTAUR R/B 3.6 06:36:17 10° NW 06:43:32 39° WSW 06:51:03 10° S
Cosmos 1812 Rocket 4.4 06:39:47 10° NNW 06:43:41 30° W 06:47:34 10° SSW
